Location: Grunbach
(48.8305°N, 8.6770°E)
Time: 02:52:43
(UTC+00:00)

Daily predictions for brighter satellites

Satellite Brightness Start Highest point End
(mag) Time Altitude Azimuth Time Altitude Azimuth Time Altitude Azimuth
ADEOS II 4.5 00:01:45 10° ENE 00:03:47 12° E 00:05:48 10° ESE
Cosmos 1553 Rocket 4.1 00:03:21 32° SSW 00:06:15 65° WNW 00:12:26 10° N
NOSS 2-2 (D) 4.2 00:01:18 10° NW 00:06:17 79° SW 00:11:37 17° SE
Cosmos 1461 3.5 00:02:39 10° NW 00:06:31 37° WSW 00:06:31 37° WSW
Gblst 52 Del rocket 4.4 00:01:15 10° W 00:07:25 76° NNW 00:13:01 10° ENE
Cosmos 1867 3.6 00:05:01 32° SW 00:07:40 83° NW 00:13:12 10° NE
Cosmos 2221 Rocket 4.0 00:06:47 37° SW 00:08:07 52° WNW 00:12:27 10° N
Cosmos 1674 Rocket 3.5 00:06:55 46° SSW 00:08:07 74° WNW 00:12:28 10° N
Cosmos 2298 Rocket 4.1 00:07:41 38° S 00:09:43 71° ESE 00:15:01 10° NNE
Cosmos 1674 3.4 00:10:51 35° WSW 00:11:35 39° WNW 00:15:09 10° N
USA 306 3.3 00:11:52 42° SSE 00:12:04 42° SE 00:16:01 10° ENE
Cosmos 1238 Rocket 3.3 00:09:44 10° NNW 00:12:06 32° WNW 00:12:06 32° WNW
Thor Agena Rocket 4.2 00:08:04 10° NNE 00:13:10 46° E 00:15:34 28° SSE
ATLAS CENTAUR R/B 3.4 00:10:59 10° WNW 00:13:59 18° WSW 00:13:59 18° WSW
USA 307 3.4 00:15:20 39° SSE 00:15:32 39° SE 00:19:27 10° ENE
SL-16 R/B 3.9 00:16:08 15° SE 00:18:58 22° E 00:23:13 10° NE
ERBS 3.5 00:22:52 26° ESE 00:22:52 26° ESE 00:24:51 10° ENE
ATLAS 5 CENTAUR R/B 3.1 00:10:56 10° NW 00:22:53 52° WSW 00:24:40 35° S
Cosmos 1980 3.8 00:20:38 34° S 00:23:05 68° ESE 00:28:43 10° NNE
CZ-4C R/B 3.3 00:16:30 10° NW 00:23:28 47° WSW 00:27:53 26° S
Cosmos 1455 Rocket 3.8 00:19:21 10° N 00:23:42 50° ENE 00:26:09 24° SE
Cosmos 1378 Rocket 3.9 00:22:19 37° SW 00:23:44 55° WNW 00:28:07 10° N
Cosmos 2333 Rocket 3.5 00:19:42 14° WSW 00:24:01 34° NW 00:29:12 10° NNE
USA 215 3.9 00:19:37 10° NE 00:25:59 57° NNW 00:32:22 10° W
Cosmos 332 Rocket 4.2 00:28:23 33° SSE 00:30:14 52° ESE 00:34:53 10° NNE
NOSS 0 Rocket 3.9 00:29:23 30° SSW 00:32:42 87° WNW 00:39:00 10° NNE
USA 32 4.0 00:35:15 33° S 00:37:40 83° W 00:42:58 10° N
Meteor 2-10 Rocket 3.6 00:32:26 10° NNW 00:38:10 87° W 00:41:17 27° S
Cosmos 1975 Rocket 3.4 00:39:39 32° SSE 00:41:34 62° E 00:45:59 10° NNE
Cosmos 1745 Rocket 4.5 00:35:48 10° NNW 00:41:40 45° W 00:44:35 27° SW
Cosmos 839 Rocket 4.3 00:37:35 10° NW 00:43:49 57° WSW 00:49:12 19° SSE
ADEOS Rocket 4.5 00:42:18 15° WSW 00:44:18 18° W 00:48:17 10° NW
USA 308 2.9 00:44:46 40° SSW 00:46:02 62° SE 00:50:11 10° ENE
Cosmos 2219 Rocket 3.6 00:42:56 12° WSW 00:47:21 30° NW 00:52:17 10° NNE
MOS 1 Rocket 4.5 00:44:17 10° SE 00:48:10 35° ENE 00:52:07 10° N
Cosmos 1025 Rocket 3.4 00:47:03 29° SSE 00:49:03 59° E 00:53:17 10° NNE
Cosmos 1455 3.6 00:46:25 10° N 00:49:48 32° ENE 00:52:38 13° SE
Cosmos 1269 Rocket 4.1 00:45:18 10° NNW 00:50:37 78° ENE 00:55:07 14° SSE
GP-B 3.2 00:51:53 10° N 00:56:16 61° W 00:58:06 33° SSW
CZ-2D R/B 2.5 00:53:49 10° NNE 00:59:09 60° ESE 01:02:28 23° S
Meteor 2-5 Rocket 3.9 00:55:38 24° S 00:59:10 72° E 01:04:50 10° NNE
Lacrosse 5 2.6 00:58:31 27° S 01:00:36 39° SE 01:05:20 10° ENE
Cosmos 1300 3.4 00:57:08 10° NNW 01:00:38 36° W 01:01:27 32° WSW
USA 267 4.3 01:02:14 23° SW 01:03:10 23° SW 01:08:13 10° WNW
SL-14 R/B 4.4 01:02:27 25° WSW 01:03:46 31° WNW 01:07:15 10° N
Cosmos 371 Rocket 4.1 01:06:03 22° WSW 01:08:46 42° WNW 01:13:24 10° NNE
USA 305 2.8 01:07:08 25° WSW 01:09:29 86° NNW 01:13:41 10° ENE
Cosmos 1544 Rocket 3.6 01:05:40 10° N 01:10:07 78° E 01:13:09 20° SSE
BREEZE-M DEB (TANK) 4.3 00:57:08 10° WSW 01:12:41 83° SSE 01:16:48 10° ENE
Cosmos 2237 Rocket 2.6 01:11:28 22° SW 01:15:06 58° WNW 01:20:45 10° NNE
COSMOS 2428 4.3 01:12:23 10° WSW 01:17:09 27° NW 01:21:58 10° NNE
AQUA 4.3 01:13:47 10° NNE 01:18:30 56° E 01:21:49 19° S
Cosmos 304 Rocket 4.3 01:17:17 23° SW 01:20:01 51° WNW 01:24:45 10° NNE
SL-16 R/B 2.5 01:14:42 13° SSE 01:20:22 83° WSW 01:26:41 10° NNW
Helios 1A 3.8 01:17:23 10° SE 01:21:27 52° ENE 01:25:35 10° N
SAR-Lupe-2 4.1 01:18:35 10° NNE 01:22:07 52° E 01:24:09 22° S
Lacrosse 5 rocket 2.3 01:21:54 24° S 01:23:25 32° SE 01:27:03 10° ENE
Cosmos 1953 4.4 01:23:32 10° NW 01:25:33 14° W 01:26:26 13° W
SME Rocket 3.9 01:24:35 26° SW 01:26:15 36° W 01:30:55 10° NNW
Cosmos 2074 Rocket 4.0 01:21:59 10° N 01:28:19 82° W 01:33:59 13° S
Resurs 1-4 Rocket 2.1 01:23:04 10° NNE 01:28:22 79° WNW 01:31:57 21° SSW
Cosmos 1943 Rocket 2.2 01:27:36 10° NNW 01:33:14 65° WSW 01:38:49 10° SSE
Cosmos 2297 3.7 01:27:27 10° NNW 01:33:14 81° WSW 01:38:58 10° SSE
Cosmos 1703 4.3 01:35:52 12° SSE 01:39:14 42° E 01:42:57 10° NNE
CRYOSAT 2 4.3 01:38:46 15° S 01:42:48 79° W 01:47:43 10° N
Cosmos 2184 Rocket 4.0 01:36:57 10° NNW 01:43:11 67° W 01:48:45 13° S
Cosmos 2278 Rocket 3.8 01:40:17 10° WNW 01:43:43 17° W 01:45:23 15° WSW
ADEOS II 2.2 01:39:01 10° NNE 01:44:19 80° ESE 01:48:40 15° S
IDEFIX/ARIANE 42P 2.8 01:39:56 10° NNE 01:45:14 69° ESE 01:49:52 13° S
Cosmos 1610 Rocket 4.5 01:40:49 10° N 01:47:01 90° ENE 01:53:09 10° S
USA 306 3.4 01:47:34 11° W 01:51:35 58° NNW 01:55:43 10° ENE
Cosmos 2084 Rocket 3.5 01:49:15 19° WSW 01:51:52 59° NW 01:55:38 10° NE
Cosmos 292 Rocket 4.1 01:48:10 15° S 01:52:03 62° ESE 01:56:48 10° NNE
USA 307 3.3 01:51:04 11° W 01:55:03 60° NNW 01:59:13 10° ENE
NPP 3.9 01:51:02 10° N 01:56:20 58° WNW 02:00:36 16° SW
ERBS 3.2 01:54:54 13° W 01:57:24 38° NNW 02:00:19 10° NE
Cosmos 2369 Rocket 2.2 01:52:55 10° NNW 01:58:34 84° ENE 02:04:09 10° SSE
Gblst 52 Del rocket 4.4 01:53:41 10° WNW 01:59:29 72° N 02:04:58 10° E
Cosmos 2228 3.1 01:57:41 10° N 02:02:05 86° ENE 02:06:26 10° S
Cosmos 614 Rocket 4.0 01:56:59 10° NNW 02:02:06 60° WSW 02:07:14 10° S
IRS-1D 4.1 01:56:54 10° NNE 02:02:12 59° E 02:07:24 10° S
EO 1 Del DPAF 2.9 01:59:00 10° NNE 02:02:32 83° WNW 02:05:16 16° SSW
SL-16 R/B 2.3 01:58:00 16° SW 02:02:32 68° WNW 02:08:14 10° NNE
Cosmos 2251 Rocket 3.5 01:58:51 10° NNW 02:04:09 90° E 02:09:27 10° SSE
Meteor 1-28 Rocket 3.5 02:03:36 14° S 02:06:37 46° W 02:10:14 10° NNW
Cosmos 1656 Rocket 3.7 02:02:30 10° NNW 02:07:58 80° ENE 02:13:23 10° SSE
USA 215 4.4 02:02:18 10° ENE 02:08:24 44° N 02:14:31 10° WNW
COSMOS 2455 2.9 02:04:48 14° SSW 02:10:04 78° ESE 02:16:07 10° NE
Cosmos 1536 Rocket 3.8 02:08:03 15° SSW 02:11:37 56° WNW 02:15:57 10° N
COSMOS 2441 4.5 02:12:39 10° NNE 02:17:33 81° ESE 02:22:23 10° SSW
Nadezhda 1 Rocket 4.2 02:15:05 11° SSW 02:21:07 61° WNW 02:27:22 10° N
MSX 3.9 02:16:29 10° NNE 02:22:16 81° WNW 02:28:02 10° SSW
Cosmos 1455 3.7 02:22:20 10° NW 02:25:04 20° W 02:27:22 12° SW
USA 308 3.7 02:21:43 10° W 02:25:47 48° NNW 02:29:53 10° ENE
Cosmos 1603 4.4 02:20:41 10° S 02:26:05 51° ESE 02:31:35 10° NE
MOS 1 Rocket 4.2 02:23:22 12° SSW 02:26:31 25° W 02:30:07 10° NW
Cosmos 1271 Rocket 3.6 02:25:38 10° NNW 02:29:04 32° W 02:32:31 10° SSW
Cosmos 1606 Rocket 3.6 02:28:51 10° NNW 02:33:16 69° W 02:37:36 10° S
ALOS 3.5 02:32:10 10° NNE 02:36:35 41° E 02:40:59 10° SSE
CZ-2C R/B 3.6 02:33:50 10° NNE 02:38:45 43° E 02:43:31 10° S
CZ-2D R/B 3.6 02:34:31 10° N 02:38:48 25° WNW 02:43:02 10° WSW
Lacrosse 5 2.3 02:38:25 10° WSW 02:43:27 59° NNW 02:48:31 10° NE
Helios 1B rocket 2.6 02:39:25 10° NNE 02:43:29 74° ESE 02:47:32 10° S
Cosmos 2366 rocket 4.0 02:39:17 10° N 02:45:29 89° W 02:51:41 10° S
Cosmos 2341 Rocket 4.1 02:39:39 10° NNW 02:45:59 65° W 02:52:17 10° S
USA 305 4.0 02:45:25 10° WNW 02:49:24 41° N 02:53:23 10° ENE
Meteor 2-1 Rocket 4.4 02:44:56 10° NNW 02:50:35 56° W 02:56:05 10° S
BREEZE-M DEB (TANK) 3.4 02:47:58 10° SW 02:51:53 32° SSE 02:54:00 10° E
Cosmos 407 Rocket 3.6 02:46:47 10° NNW 02:52:04 64° WSW 02:57:16 10° S
SL-8 Rocket 4.1 02:46:27 10° NNW 02:52:45 69° W 02:58:59 10° S
Cosmos 1371 Rocket 4.5 02:51:08 10° S 02:56:13 61° ESE 03:01:20 10° NNE
Cosmos 1943 3.3 02:51:48 10° SSW 02:57:31 87° WNW 03:03:15 10° NNE
